Погода в Садовом

Россия / Волгоградская область     49°40′38″N   45°55′27″E
темп.,
°C
ветер,
м/с
пор.,
м/с
влажн.,
%
обл.,
%
осадки,
мм/ч
давл.,
гПа
погр.,
м
26 сентября, вс
вс2600:00+12юз248597 0.1 1012172
03:00+11зюз3589100 0.1 1012175
06:00+10зюз48945 0.0 1011191
09:00+14юз7106499 0.0 1010775
12:00+14юз71163100 0.1 10081225
15:00+11юз71186100 0.9 1006717
18:00+12юз6129171 0.9 1004520
21:00+11зсз613835 1.4 1004461
27 сентября, пн
пн2700:00+10зсз814835 0.0 1004561
03:00+8зсз8148634 0.0 1005570
06:00+9з81383100 0.0 1005694
09:00+10зсз81284100 0.8 1005733
12:00+11сз697985 0.3 1007699
15:00+13ссз587494 0.3 1009664
18:00+12ссз497971 0.1 1011240
21:00+10ссз510878 0.2 1013289
28 сентября, вт
вт2800:00+11ссз5978100 0.0 1014508
03:00+10ссз488187 0.0 1015361
06:00+10ссз478299 0.0 1016428
09:00+11с5676100 0.0 1017750
12:00+10св6663100 0.1 1019823
15:00+8ссв6668100 0.1 1021793
18:00+8ссв4872100 0.0 1022938
21:00+7ссв5764100 0.0 1024877
29 сентября, ср
ср2900:00+7ссв5766100 0.0 1024754
03:00+7ссв5866100 0.0 1025669
06:00+7ссв5866100 0.0 1025609
09:00+8ссв6853100 0.0 1026882
12:00+11ссв6742100 0.0 10261980
15:00+11св664599 0.0 10271704
18:00+8св375567 0.1 1028157
21:00+6ссв34615 0.1 102964
30 сентября, чт
чт3000:00+5ссв34655 0.0 102956
03:00+4ссв35635 0.0 103088
06:00+3с47665 0.0 1031123
09:00+8ссв56475 0.0 1032564
12:00+11ссв55350 0.0 10321780
15:00+12ссв453313 0.0 10311981
18:00+9ссз46445 0.0 103296
21:00+7с36525 0.0 103396